Location: Chimay
(50.0486°N, 4.3171°E)
Time: 09:05:53
(UTC+00:00)

BREEZE-M DEB (TANK) - Pass Details

Date: 08 August 2020
Orbit: 320 x 16292 km, 49.4° (Epoch: 21 September)

Event Time Altitude Azimuth Distance (km) Brightness Sun altitude
Rises 20:40:44 0° 255° (WSW) 2,128 5.8 -12.3°
Reaches altitude 10° 20:42:07 10° 253° (WSW) 1,434 4.8 -12.5°
Maximum altitude 20:44:46 75° 167° (SSE) 607 2.3 -12.8°
Drops below altitude 10° 20:51:41 10° 83° (E) 3,655 6.1 -13.6°
Sets 20:57:30 0° 83° (E) 6,271 7.3 -14.2°
